Hauptseite
METAR-TAF:

METAR-TAF

Flughäfen :

Fliegerhorst Meppen

Meppen, Deutschland

Breite: 52-43-24N, Länge: 007-19-35E, Höhe: 21 m

Beobachtung

Neuester Wetterbericht von vor 28 Minuten, um 06:20 UTC
Wind 5 kt aus Süd
Temperatur 9°C
Luftfeuchtigkeit 87%
Luftdruck 1023 hPa
Sichtweite 10 km oder mehr
Leicht bewölkt in der Höhe von 24000 ft

METAR: ETWM 070620Z 18005KT 9999 FEW240 09/07 Q1023 BLU+

Zeit: 08:48 (06:48 UTC)


TAF: fehlend

Wetterbeobachtungen und Prognosen von mehr als 4000 Flughäfen (METAR und TAF Bericht).

Die verfügbaren Stationen werden durch gelbe und rote Markierungen auf der Karte dargestellt.

Führen Sie die Maus auf sie, um den Namen der Station zu sehen.

Darauf klicken, um die Beobachtung von Wetterbeobachtungen und Prognosen zu sehen.

Um die Karte zu ändern : klicken Sie auf den grünen Tasten mit einem schwarzen Kreuz Zum Vergrößern, auf den grünen Button mit einem Gedankenstrich zu verkleinern, oder auf die grünen Pfeile für benachbarte Karten.


METAR-TAF: